Index of /20260428/WXO-DD/model_gdps/15km/00/013
Name Last modified Size Description
Parent Directory -
20260428T00Z_MSC_GDPS_AirTemp_AGL-120m_LatLon0.15_PT013H.grib2 2026-04-28 03:53 910K
20260428T00Z_MSC_GDPS_AirTemp_AGL-2m_LatLon0.15_PT013H.grib2 2026-04-28 03:53 1.0M
20260428T00Z_MSC_GDPS_AirTemp_AGL-40m_LatLon0.15_PT013H.grib2 2026-04-28 03:53 813K
20260428T00Z_MSC_GDPS_AirTemp_AGL-80m_LatLon0.15_PT013H.grib2 2026-04-28 03:53 802K
20260428T00Z_MSC_GDPS_Albedo_Sfc_LatLon0.15_PT013H.grib2 2026-04-28 03:53 244K
20260428T00Z_MSC_GDPS_ConvectivePrecip-Accum_Sfc_LatLon0.15_PT013H.grib2 2026-04-28 03:53 2.1M
20260428T00Z_MSC_GDPS_DewPointDepression_AGL-2m_LatLon0.15_PT013H.grib2 2026-04-28 03:53 758K
20260428T00Z_MSC_GDPS_DewPoint_AGL-2m_LatLon0.15_PT013H.grib2 2026-04-28 03:53 609K
20260428T00Z_MSC_GDPS_DownwardLongwaveRadiationFlux-Accum_Sfc_LatLon0.15_PT013H.grib2 2026-04-28 03:53 1.0M
20260428T00Z_MSC_GDPS_DownwardShortwaveRadiationFlux-Accum_Sfc_LatLon0.15_PT013H.grib2 2026-04-28 03:53 944K
20260428T00Z_MSC_GDPS_FreezingRain-Accum1h_Sfc_LatLon0.15_PT013H.grib2 2026-04-28 03:53 46K
20260428T00Z_MSC_GDPS_FreezingRain-Accum_Sfc_LatLon0.15_PT013H.grib2 2026-04-28 03:53 118K
20260428T00Z_MSC_GDPS_IcePellets-Accum1h_Sfc_LatLon0.15_PT013H.grib2 2026-04-28 03:53 12K
20260428T00Z_MSC_GDPS_IcePellets-Accum_Sfc_LatLon0.15_PT013H.grib2 2026-04-28 03:53 23K
20260428T00Z_MSC_GDPS_LatentHeatNetFlux_Sfc_LatLon0.15_PT013H.grib2 2026-04-28 03:53 716K
20260428T00Z_MSC_GDPS_NetLongwaveRadiationFlux-Accum_Sfc_LatLon0.15_PT013H.grib2 2026-04-28 03:53 1.0M
20260428T00Z_MSC_GDPS_NetShortwaveRadiationFlux-Accum_Sfc_LatLon0.15_PT013H.grib2 2026-04-28 03:53 906K
20260428T00Z_MSC_GDPS_O3MixingRatio_LatLon0.15_PT013H.grib2 2026-04-28 04:52 2.1M
20260428T00Z_MSC_GDPS_O3_EAtm_LatLon0.15_PT013H.grib2 2026-04-28 04:52 2.5M
20260428T00Z_MSC_GDPS_PlanetaryBoundaryLayerHeight_Sfc_LatLon0.15_PT013H.grib2 2026-04-28 03:53 2.5M
20260428T00Z_MSC_GDPS_Precip-Accum1h_Sfc_LatLon0.15_PT013H.grib2 2026-04-28 03:53 3.3M
20260428T00Z_MSC_GDPS_Precip-Accum_Sfc_LatLon0.15_PT013H.grib2 2026-04-28 03:53 4.2M
20260428T00Z_MSC_GDPS_PrecipRate_Sfc_LatLon0.15_PT013H.grib2 2026-04-28 03:53 3.0M
20260428T00Z_MSC_GDPS_Pressure_MSL_LatLon0.15_PT013H.grib2 2026-04-28 03:53 726K
20260428T00Z_MSC_GDPS_Pressure_Sfc_LatLon0.15_PT013H.grib2 2026-04-28 03:53 1.1M
20260428T00Z_MSC_GDPS_RadiativeTemp_Sfc_LatLon0.15_PT013H.grib2 2026-04-28 03:53 494K
20260428T00Z_MSC_GDPS_Rain-Accum1h_Sfc_LatLon0.15_PT013H.grib2 2026-04-28 03:53 1.7M
20260428T00Z_MSC_GDPS_Rain-Accum_Sfc_LatLon0.15_PT013H.grib2 2026-04-28 03:53 3.0M
20260428T00Z_MSC_GDPS_RelativeHumidity_AGL-2m_LatLon0.15_PT013H.grib2 2026-04-28 03:53 1.1M
20260428T00Z_MSC_GDPS_Runoff-Accum_Sfc_LatLon0.15_PT013H.grib2 2026-04-28 03:53 88K
20260428T00Z_MSC_GDPS_SensibleHeatNetFlux_Sfc_LatLon0.15_PT013H.grib2 2026-04-28 03:53 654K
20260428T00Z_MSC_GDPS_Snow-Accum1h_Sfc_LatLon0.15_PT013H.grib2 2026-04-28 03:53 659K
20260428T00Z_MSC_GDPS_Snow-Accum_Sfc_LatLon0.15_PT013H.grib2 2026-04-28 03:53 1.7M
20260428T00Z_MSC_GDPS_SnowDepth_Sfc_LatLon0.15_PT013H.grib2 2026-04-28 03:53 1.7M
20260428T00Z_MSC_GDPS_SoilTemp_DBS-0to10cm_LatLon0.15_PT013H.grib2 2026-04-28 03:53 497K
20260428T00Z_MSC_GDPS_SoilTemp_Sfc_LatLon0.15_PT013H.grib2 2026-04-28 03:53 586K
20260428T00Z_MSC_GDPS_SoilVolumetricWaterContent_DBS-0to10cm_LatLon0.15_PT013H.grib2 2026-04-28 03:53 576K
20260428T00Z_MSC_GDPS_SoilVolumetricWaterContent_DBS-0to1cm_LatLon0.15_PT013H.grib2 2026-04-28 03:53 642K
20260428T00Z_MSC_GDPS_SpecificHumidity_AGL-120m_LatLon0.15_PT013H.grib2 2026-04-28 03:53 1.1M
20260428T00Z_MSC_GDPS_SpecificHumidity_AGL-2m_LatLon0.15_PT013H.grib2 2026-04-28 03:53 1.2M
20260428T00Z_MSC_GDPS_SpecificHumidity_AGL-40m_LatLon0.15_PT013H.grib2 2026-04-28 03:53 1.1M
20260428T00Z_MSC_GDPS_SpecificHumidity_AGL-80m_LatLon0.15_PT013H.grib2 2026-04-28 03:53 1.1M
20260428T00Z_MSC_GDPS_SpecificHumidity_Sfc_LatLon0.15_PT013H.grib2 2026-04-28 03:53 669K
20260428T00Z_MSC_GDPS_TotalCloudCover_Sfc_LatLon0.15_PT013H.grib2 2026-04-28 03:53 843K
20260428T00Z_MSC_GDPS_UVIndex-ClearSky_Sfc_LatLon0.15_PT013H.grib2 2026-04-28 04:52 1.0M
20260428T00Z_MSC_GDPS_UVIndex_Sfc_LatLon0.15_PT013H.grib2 2026-04-28 04:52 1.5M
20260428T00Z_MSC_GDPS_UpwardLongwaveRadiationFlux_NTAtm_LatLon0.15_PT013H.grib2 2026-04-28 03:53 845K
20260428T00Z_MSC_GDPS_WindDir_AGL-10m_LatLon0.15_PT013H.grib2 2026-04-28 03:53 1.3M
20260428T00Z_MSC_GDPS_WindDir_AGL-120m_LatLon0.15_PT013H.grib2 2026-04-28 03:53 1.4M
20260428T00Z_MSC_GDPS_WindDir_AGL-40m_LatLon0.15_PT013H.grib2 2026-04-28 03:53 1.4M
20260428T00Z_MSC_GDPS_WindDir_AGL-80m_LatLon0.15_PT013H.grib2 2026-04-28 03:53 1.4M
20260428T00Z_MSC_GDPS_WindDir_IsbL-0700_LatLon0.15_PT013H.grib2 2026-04-28 03:53 1.6M
20260428T00Z_MSC_GDPS_WindGust-Max_AGL-10m_LatLon0.15_PT013H.grib2 2026-04-28 03:53 2.2M
20260428T00Z_MSC_GDPS_WindGust-Min_AGL-10m_LatLon0.15_PT013H.grib2 2026-04-28 03:53 2.2M
20260428T00Z_MSC_GDPS_WindGust_AGL-10m_LatLon0.15_PT013H.grib2 2026-04-28 03:53 2.2M
20260428T00Z_MSC_GDPS_WindSpeed_AGL-10m_LatLon0.15_PT013H.grib2 2026-04-28 03:53 1.1M
20260428T00Z_MSC_GDPS_WindSpeed_AGL-120m_LatLon0.15_PT013H.grib2 2026-04-28 03:53 1.3M
20260428T00Z_MSC_GDPS_WindSpeed_AGL-40m_LatLon0.15_PT013H.grib2 2026-04-28 03:53 1.2M
20260428T00Z_MSC_GDPS_WindSpeed_AGL-80m_LatLon0.15_PT013H.grib2 2026-04-28 03:53 1.3M
20260428T00Z_MSC_GDPS_WindSpeed_IsbL-0700_LatLon0.15_PT013H.grib2 2026-04-28 03:53 1.5M
20260428T00Z_MSC_GDPS_WindU_AGL-10m_LatLon0.15_PT013H.grib2 2026-04-28 03:53 1.3M
20260428T00Z_MSC_GDPS_WindU_AGL-120m_LatLon0.15_PT013H.grib2 2026-04-28 03:53 1.0M
20260428T00Z_MSC_GDPS_WindU_AGL-40m_LatLon0.15_PT013H.grib2 2026-04-28 03:53 1.0M
20260428T00Z_MSC_GDPS_WindU_AGL-80m_LatLon0.15_PT013H.grib2 2026-04-28 03:53 1.0M
20260428T00Z_MSC_GDPS_WindU_IsbL-0700_LatLon0.15_PT013H.grib2 2026-04-28 03:53 1.2M
20260428T00Z_MSC_GDPS_WindV_AGL-10m_LatLon0.15_PT013H.grib2 2026-04-28 03:53 1.6M
20260428T00Z_MSC_GDPS_WindV_AGL-120m_LatLon0.15_PT013H.grib2 2026-04-28 03:53 1.0M
20260428T00Z_MSC_GDPS_WindV_AGL-40m_LatLon0.15_PT013H.grib2 2026-04-28 03:53 1.0M
20260428T00Z_MSC_GDPS_WindV_AGL-80m_LatLon0.15_PT013H.grib2 2026-04-28 03:53 1.0M
20260428T00Z_MSC_GDPS_WindV_IsbL-0700_LatLon0.15_PT013H.grib2 2026-04-28 03:53 1.2M